Location: Newark
(53.3469°N, 7.1606°E)
Time: 05:40:41
(UTC+00:00)

N. Korean satellite - Pass Details

Date: 15 November 2019
Orbit: 455 x 507 km, 97.2° (Epoch: 14 December)

Event Time Altitude Azimuth Distance (km) Brightness Sun altitude
Rises 06:13:13 0° 8° (N) 2,628 10.1 -6.5°
Reaches altitude 10° 06:15:24 10° 1° (N) 1,738 9.2 -6.2°
Maximum altitude 06:18:55 39° 292° (WNW) 769 7.1 -5.7°
Drops below altitude 10° 06:22:23 10° 222° (SW) 1,715 9.2 -5.2°
Sets 06:24:32 0° 215° (SW) 2,589 10.2 -5.0°
